This demonstration page uses our WeatherBlox Daily Observations layout. Learn more.

Left ArrowRight Arrow

38.20091, -84.87328

Hourly Observations for February 22, 2018

Temp ( °F °C ) Dew Point ( °F °C ) Humidity (%) Winds ( mph kmh ) Pressure ( in mb ) Visibility ( mi km ) Precip ( " mm )
12:53 am 00:53 Cloudy with Heavy Rain 47 8.3 43 6.1 86 86 N 9 15 30.37 1028 3 4 0.09 2.29
1:15 am 01:15 Cloudy with Heavy Rain 47 8.3 43 6.1 86 86 ENE 7 11 30.39 1029 2 3 0.25 6.35
1:35 am 01:35 Cloudy with Rain 46 7.8 43 6.1 89 89 NE 12 19 30.36 1028 3 5 0.40 10.16
1:46 am 01:46 Cloudy with Heavy Rain 46 7.8 43 6.1 89 89 NNE 9 15 30.39 1029 3 5 0.48 12.19
1:53 am 01:53 Cloudy with Heavy Rain 46 7.8 43 6.1 89 89 NE 10 17 30.35 1028 2 3 0.55 13.97
2:13 am 02:13 Cloudy with Rain 46 7.8 43 6.1 89 89 NNE 10 17 30.36 1028 3 5 0.14 3.56
2:23 am 02:23 Cloudy with Rain 46 7.8 43 6.1 89 89 NNE 7 11 30.36 1028 4 6 0.17 4.32
2:30 am 02:30 Cloudy with Heavy Rain 46 7.8 43 6.1 89 89 NNE 8 13 30.36 1028 4 6 0.22 5.59
2:53 am 02:53 Cloudy with Heavy Rain 46 7.8 42 5.6 86 86 NE 8 13 30.32 1027 3 5 0.32 8.13
3:00 am 03:00 Cloudy with Rain 46 7.8 42 5.6 86 86 NNE 9 15 30.36 1028 4 6 0.03 0.76
3:23 am 03:23 Cloudy with Rain 46 7.8 42 5.6 86 86 NNE 10 17 30.33 1027 6 10 0.08 2.03
3:46 am 03:46 Cloudy with Heavy Rain 45 7.2 42 5.6 90 90 NE 12 19 30.33 1027 3 4 0.19 4.83
3:53 am 03:53 Cloudy with Heavy Rain 45 7.2 42 5.6 90 90 NNE 12 19 30.30 1026 3 4 0.24 6.10
4:18 am 04:18 Cloudy with Heavy Rain 45 7.2 42 5.6 90 90 NE 9 15 30.33 1027 3 4 0.22 5.59
4:31 am 04:31 Cloudy with Heavy Rain 45 7.2 42 5.6 90 90 NNE 8 13 30.33 1027 2 3 0.35 8.89
4:40 am 04:40 Cloudy with Heavy Rain 45 7.2 42 5.6 90 90 NE 9 15 30.33 1027 3 5 0.40 10.16
4:50 am 04:50 Cloudy with Heavy Rain 45 7 41 5 87 87 NNE 8 13 30.33 1027 3 5 0.45 11.43
4:53 am 04:53 Cloudy with Heavy Rain 45 7.2 41 5 86 86 NE 9 15 30.29 1026 3 5 0.47 11.94
5:00 am 05:00 Cloudy with Heavy Rain 44 6.7 41 5 89 89 NNW 12 19 30.36 1028 3 4 0.06 1.52
5:13 am 05:13 Cloudy with Rain 44 6.7 41 5 89 89 N 8 13 30.33 1027 3 5 0.16 4.06
5:33 am 05:33 Cloudy with Heavy Rain 44 6.7 40 4.4 85 85 NNE 10 17 30.33 1027 2 3 0.34 8.64
5:42 am 05:42 Cloudy with Rain 44 6.7 40 4.4 85 85 VRB 7 11 30.33 1027 3 5 0.37 9.40
5:53 am 05:53 Cloudy with Light Rain 43 6.1 40 4.4 89 89 NNW 12 19 30.34 1028 7 11 0.39 9.91
6:17 am 06:17 Cloudy with Light Rain 43 6.1 39 3.9 86 86 NNE 8 13 30.36 1028 6 10 0.03 0.76
6:23 am 06:23 Cloudy with Rain 43 6.1 39 3.9 86 86 NNE 9 15 30.36 1028 6 10 0.05 1.27
6:30 am 06:30 Cloudy with Light Rain 43 6.1 39 3.9 86 86 NNE 8 13 30.33 1027 6 10 0.06 1.52
6:53 am 06:53 Cloudy with Light Rain 43 6.1 39 3.9 86 86 NNE 8 13 30.32 1027 10 16 0.07 1.78
7:05 am 07:05 Cloudy with Light Rain 43 6.1 39 3.9 86 86 NNE 9 15 30.36 1028 10 16 0.01 0.25
7:53 am 07:53 Cloudy 42 5.6 39 3.9 89 89 ENE 6 9 30.32 1027 10 16 0.01 0.25
8:53 am 08:53 Cloudy 43 6.1 39 3.9 86 86 E 6 9 30.35 1028 10 16 0.00 0.00
9:53 am 09:53 Cloudy with Light Rain 44 6.7 40 4.4 85 85 N 7 11 30.39 1029 3 5 0.00 0.03
10:13 am 10:13 Cloudy with Light Rain 43 6.1 39 3.9 86 86 N 8 13 30.42 1030 2 3 0.01 0.25
10:28 am 10:28 Cloudy 43 6.1 40 4.4 89 89 NNE 7 11 30.42 1030 7 11 0.01 0.25
10:53 am 10:53 Cloudy with Mist and Fog 44 6.7 40 4.4 85 85 NNE 7 11 30.41 1030 5 8 0.01 0.25
11:11 am 11:11 Cloudy with Mist and Fog 44 6.7 40 4.4 85 85 NNE 6 9 30.42 1030 4 6 0.00 0.00
11:53 am 11:53 Cloudy 46 7.8 41 5 83 83 NE 8 13 30.40 1030 9 14 0.00 0.00
12:53 pm 12:53 Cloudy 46 7.8 42 5.6 86 86 NE 6 9 30.41 1030 10 16 0.00 0.00
1:53 pm 13:53 Cloudy 47 8.3 43 6.1 86 86 E 9 15 30.38 1029 10 16 0.00 0.00
2:53 pm 14:53 Cloudy 49 9.4 44 6.7 83 83 E 8 13 30.36 1028 10 16 0.00 0.00
3:53 pm 15:53 Cloudy 49 9.4 44 6.7 83 83 E 6 9 30.36 1028 10 16 0.00 0.00
4:53 pm 16:53 Cloudy 49 9.4 44 6.7 83 83 NE 7 11 30.34 1027 10 16 0.00 0.00
5:53 pm 17:53 Cloudy 49 9.4 45 7.2 86 86 ENE 7 11 30.35 1028 9 14 0.00 0.00
6:44 pm 18:44 Cloudy with Mist and Fog 48 8.9 45 7.2 89 89 ENE 7 11 30.36 1028 3 5 0.00 0.00
6:53 pm 18:53 Cloudy with Mist and Fog 48 8.9 45 7.2 89 89 E 7 11 30.36 1028 3 4 0.00 0.00
7:18 pm 19:18 Cloudy with Mist and Fog 48 8.9 45 7.2 89 89 E 7 11 30.36 1028 3 5 0.00 0.00
7:40 pm 19:40 Cloudy with Mist and Fog 48 8.9 45 7.2 89 89 ENE 3 6 30.39 1029 2 3 0.00 0.00
7:53 pm 19:53 Cloudy with Mist and Fog 49 9.4 45 7.2 86 86 NNE 5 7 30.36 1028 3 5 0.00 0.00
8:53 pm 20:53 Cloudy with Mist and Fog 49 9.4 46 7.8 90 90 ENE 5 7 30.35 1028 3 5 0.00 0.00
9:29 pm 21:29 Cloudy with Mist and Fog 49 9.4 46 7.8 90 90 N 3 6 30.39 1029 2 3 0.00 0.00
9:38 pm 21:38 Cloudy with Mist and Fog 49 9.4 46 7.8 90 90 NE 3 6 30.39 1029 1 2 0.00 0.00
9:53 pm 21:53 Cloudy with Mist and Fog 49 9.4 46 7.8 90 90 NE 3 6 30.36 1028 1 2 0.00 0.00
10:40 pm 22:40 Cloudy with Mist and Fog 49 9.4 46 7.8 90 90 E 3 6 30.39 1029 2 3 0.00 0.00
10:53 pm 22:53 Cloudy with Mist and Fog 49 9.4 46 7.8 90 90 E 3 6 30.35 1028 2 3 0.00 0.00
11:20 pm 23:20 Cloudy with Mist and Fog 49 9.4 47 8.3 93 93 E 3 6 30.36 1028 3 5 0.00 0.00
11:53 pm 23:53 Cloudy with Mist and Fog 50 10 47 8.3 89 89 ENE 3 6 30.33 1027 4 6 0.00 0.00

Powered by AerisWeather